Time,TemperatureF,DewpointF,PressureIn,WindDirection,WindDirectionDegrees,WindSpeedMPH,WindSpeedGustMPH,Humidity,HourlyPrecipIn,Conditions,Clouds,dailyrainin,SoftwareType,DateUTC
2013-03-30 00:00:00,30.0,-99.9,-100.00,West,263,9.0,11.0,-999,-99.99,,,-99.99,,2013-03-30 06:00:00,
2013-03-30 00:52:00,30.0,-99.9,-100.00,West,263,9.0,11.0,-999,-99.99,,,-99.99,,2013-03-30 06:52:00,
2013-03-30 01:00:00,30.0,-99.9,-100.00,WSW,240,10.0,16.0,-999,-99.99,,,-99.99,,2013-03-30 07:00:00,
2013-03-30 01:52:00,30.0,-99.9,-100.00,WSW,240,10.0,16.0,-999,-99.99,,,-99.99,,2013-03-30 07:52:00,
2013-03-30 02:00:00,30.0,-99.9,-100.00,WSW,258,14.0,25.0,-999,-99.99,,,-99.99,,2013-03-30 08:00:00,
2013-03-30 02:53:00,30.0,-99.9,-100.00,WSW,258,14.0,25.0,-999,-99.99,,,-99.99,,2013-03-30 08:53:00,
2013-03-30 03:00:00,30.0,-99.9,-100.00,WSW,243,22.0,28.0,-999,-99.99,,,-99.99,,2013-03-30 09:00:00,
2013-03-30 03:54:00,30.0,-99.9,-100.00,WSW,243,22.0,28.0,-999,-99.99,,,-99.99,,2013-03-30 09:54:00,
2013-03-30 04:00:00,32.0,-99.9,-100.00,SW,229,31.0,35.0,-999,-99.99,,,-99.99,,2013-03-30 10:00:00,
2013-03-30 04:53:00,32.0,-99.9,-100.00,SW,229,31.0,35.0,-999,-99.99,,,-99.99,,2013-03-30 10:53:00,
2013-03-30 05:00:00,30.0,-99.9,-100.00,SW,234,22.0,29.0,-999,-99.99,,,-99.99,,2013-03-30 11:00:00,
2013-03-30 05:53:00,30.0,-99.9,-100.00,SW,234,22.0,29.0,-999,-99.99,,,-99.99,,2013-03-30 11:53:00,
2013-03-30 06:00:00,30.0,-99.9,-100.00,SW,229,31.0,33.0,-999,-99.99,,,-99.99,,2013-03-30 12:00:00,
2013-03-30 06:54:00,30.0,-99.9,-100.00,SW,229,31.0,33.0,-999,-99.99,,,-99.99,,2013-03-30 12:54:00,
2013-03-30 07:00:00,30.0,-99.9,-100.00,WSW,239,22.0,26.0,-999,-99.99,,,-99.99,,2013-03-30 13:00:00,
2013-03-30 07:53:00,30.0,-99.9,-100.00,WSW,239,22.0,26.0,-999,-99.99,,,-99.99,,2013-03-30 13:53:00,
2013-03-30 08:00:00,34.0,-99.9,-100.00,WSW,240,31.0,34.0,-999,-99.99,,,-99.99,,2013-03-30 14:00:00,
2013-03-30 08:53:00,34.0,-99.9,-100.00,WSW,240,31.0,34.0,-999,-99.99,,,-99.99,,2013-03-30 14:53:00,
2013-03-30 09:00:00,36.0,-99.9,-100.00,WSW,244,31.0,38.0,-999,-99.99,,,-99.99,,2013-03-30 15:00:00,
2013-03-30 09:53:00,36.0,-99.9,-100.00,WSW,244,31.0,38.0,-999,-99.99,,,-99.99,,2013-03-30 15:53:00,
2013-03-30 10:00:00,39.0,-99.9,-100.00,WSW,241,29.0,37.0,-999,-99.99,,,-99.99,,2013-03-30 16:00:00,
2013-03-30 10:53:00,39.0,-99.9,-100.00,WSW,241,29.0,37.0,-999,-99.99,,,-99.99,,2013-03-30 16:53:00,
2013-03-30 11:00:00,41.0,-99.9,-100.00,SW,236,36.0,40.0,-999,-99.99,,,-99.99,,2013-03-30 17:00:00,
2013-03-30 11:53:00,41.0,-99.9,-100.00,SW,236,36.0,40.0,-999,-99.99,,,-99.99,,2013-03-30 17:53:00,
2013-03-30 12:00:00,41.0,-99.9,-100.00,WSW,241,39.0,45.0,-999,-99.99,,,-99.99,,2013-03-30 18:00:00,
2013-03-30 12:53:00,41.0,-99.9,-100.00,WSW,241,39.0,45.0,-999,-99.99,,,-99.99,,2013-03-30 18:53:00,
2013-03-30 13:00:00,43.0,-99.9,-100.00,SW,229,30.0,40.0,-999,-99.99,,,-99.99,,2013-03-30 19:00:00,
2013-03-30 13:53:00,43.0,-99.9,-100.00,SW,229,30.0,40.0,-999,-99.99,,,-99.99,,2013-03-30 19:53:00,
2013-03-30 14:00:00,41.0,-99.9,-100.00,West,270,30.0,38.0,-999,-99.99,,,-99.99,,2013-03-30 20:00:00,
2013-03-30 14:53:00,41.0,-99.9,-100.00,West,270,30.0,38.0,-999,-99.99,,,-99.99,,2013-03-30 20:53:00,
2013-03-30 15:00:00,37.0,-99.9,-100.00,NNE,16,8.0,26.0,-999,-99.99,,,-99.99,,2013-03-30 21:00:00,
2013-03-30 15:54:00,37.0,-99.9,-100.00,NNE,16,8.0,26.0,-999,-99.99,,,-99.99,,2013-03-30 21:54:00,
2013-03-30 16:00:00,36.0,-99.9,-100.00,North,7,15.0,22.0,-999,-99.99,,,-99.99,,2013-03-30 22:00:00,
2013-03-30 16:54:00,36.0,-99.9,-100.00,North,7,15.0,22.0,-999,-99.99,,,-99.99,,2013-03-30 22:54:00,
2013-03-30 17:00:00,30.0,-99.9,-100.00,WNW,302,4.0,8.0,-999,-99.99,,,-99.99,,2013-03-30 23:00:00,
2013-03-30 17:53:00,30.0,-99.9,-100.00,WNW,302,4.0,8.0,-999,-99.99,,,-99.99,,2013-03-30 23:53:00,
2013-03-30 18:00:00,32.0,-99.9,-100.00,NNW,337,11.0,15.0,-999,-99.99,,,-99.99,,2013-03-31 00:00:00,
2013-03-30 18:53:00,32.0,-99.9,-100.00,NNW,337,11.0,15.0,-999,-99.99,,,-99.99,,2013-03-31 00:53:00,
2013-03-30 19:00:00,34.0,-99.9,-100.00,NW,304,14.0,25.0,-999,-99.99,,,-99.99,,2013-03-31 01:00:00,
2013-03-30 19:53:00,34.0,-99.9,-100.00,NW,304,14.0,25.0,-999,-99.99,,,-99.99,,2013-03-31 01:53:00,
2013-03-30 20:00:00,30.0,-99.9,-100.00,NW,308,19.0,21.0,-999,-99.99,,,-99.99,,2013-03-31 02:00:00,
2013-03-30 20:53:00,30.0,-99.9,-100.00,NW,308,19.0,21.0,-999,-99.99,,,-99.99,,2013-03-31 02:53:00,
2013-03-30 21:00:00,30.0,-99.9,-100.00,West,272,12.0,14.0,-999,-99.99,,,-99.99,,2013-03-31 03:00:00,
2013-03-30 21:54:00,30.0,-99.9,-100.00,West,272,12.0,14.0,-999,-99.99,,,-99.99,,2013-03-31 03:54:00,
2013-03-30 22:00:00,28.0,-99.9,-100.00,West,280,13.0,19.0,-999,-99.99,,,-99.99,,2013-03-31 04:00:00,
2013-03-30 22:53:00,28.0,-99.9,-100.00,West,280,13.0,19.0,-999,-99.99,,,-99.99,,2013-03-31 04:53:00,
2013-03-30 23:00:00,23.0,-99.9,-100.00,West,265,8.0,9.0,-999,-99.99,,,-99.99,,2013-03-31 05:00:00,
2013-03-30 23:53:00,23.0,-99.9,-100.00,West,265,8.0,9.0,-999,-99.99,,,-99.99,,2013-03-31 05:53:00,